Voltar ao catálogo

MOLNIYA 3-41

AtivoComunicaçõesHEO
NORAD 21706·PAYLOAD·🇷🇺 Russia

Lançado Sep 17, 1991 de Plesetsk Cosmodrome

Loading…

Próximas Passagens (próximas 24 horas)

TLE

AtualizadoSource: Space-Track

Época: Sep 13, 2026, 22:49 UTC

1 21706U 91065A   26256.95134298  .00000796  00000-0  50385-3 0  9995
2 21706  62.6098 305.2239 7417988 254.1688  19.6056  2.04504481258539

Acompanhe MOLNIYA 3-41 em tempo real com AllMySat

Download on the App Store